Temperature
18 18 17 17 17 17 17 16 16 16 16 16 16 16 16 16 16 16 16 15 15 15 15 15 15 15 15 15 15 14 14 14 14 13 13 13 13 13 13 13 13 13 13
18 18 17 17 17 17 17 17 17 17 17 16 16 16 16 16 16 16 15 15 15 15 15 15 15 15 15 14 14 14 14 14 14 13 13 13 13 13 13 13 13 13 13
18 18 17 17 17 17 17 17 17 17 17 17 16 16 16 16 16 16 15 15 15 15 15 15 15 14 14 14 14 14 14 14 13 13 13 13 12 12 12 12 12 12 12
18 18 17 17 17 17 17 17 16 17 17 17 16 16 16 16 16 15 15 15 15 15 15 14 14 14 14 14 14 14 13 13 13 13 13 12 12 12 12 12 12 12 12
18 18 17 17 17 17 17 17 16 16 16 16 16 16 16 16 16 15 15 15 15 15 14 14 14 14 14 14 14 13 13 13 13 13 12 12 12 12 12 12 12 12 12
18 18 18 17 17 17 17 17 17 16 16 16 16 16 16 16 16 15 15 15 15 15 14 14 14 14 14 14 13 13 13 13 13 12 12 12 12 12 12 12 11 11 11
18 18 18 17 17 17 17 17 17 16 16 16 16 16 16 16 16 15 15 15 14 14 14 14 14 14 14 14 13 13 13 13 12 12 12 12 12 12 12 11 11 11 11
18 18 18 18 17 17 17 17 17 16 16 16 16 16 16 16 15 15 15 15 14 14 14 14 14 13 13 13 13 13 13 13 12 12 12 12 12 12 11 11 11 11 11
18 18 18 18 17 17 17 17 16 16 16 16 16 16 15 15 15 15 15 15 15 14 14 14 13 13 13 13 13 13 12 12 12 12 12 12 12 12 11 11 11 11 11
18 18 18 18 17 17 17 17 16 16 16 16 16 15 15 15 15 15 15 15 14 14 14 14 13 13 13 13 12 12 12 12 12 12 12 11 11 11 11 11 11 10 10
18 18 18 17 17 17 17 16 16 16 16 15 15 15 15 15 15 15 15 14 14 14 14 14 13 13 13 12 12 12 12 11 11 11 11 11 11 11 11 11 10 10 10
18 18 17 17 17 17 16 16 16 16 16 15 15 15 15 15 15 15 15 14 14 14 14 13 13 13 13 12 12 12 12 11 11 11 11 11 11 10 10 10 10 10 10
18 17 17 17 16 16 16 16 15 15 15 15 15 15 15 15 15 14 14 14 14 14 13 13 13 13 12 12 12 12 11 11 11 11 11 11 10 10 10 10 9 9 9
17 17 16 16 16 16 15 15 15 15 15 15 15 15 14 14 14 14 14 14 13 13 13 13 12 12 12 12 12 11 11 11 11 11 11 10 10 10 9 9 9 9 9
17 16 16 16 15 15 15 15 15 15 14 14 14 14 14 14 14 14 13 13 13 13 13 12 12 12 12 12 11 11 11 11 11 10 10 10 10 9 9 9 8 8 8
16 16 15 15 15 15 15 14 14 14 14 14 14 13 13 13 13 13 13 13 12 12 12 12 12 12 11 11 11 11 10 10 10 10 10 9 9 9 8 8 8 8 7
16 15 15 15 15 14 14 14 14 14 14 13 13 13 13 13 13 13 12 12 12 11 11 11 11 11 11 10 10 10 10 10 9 9 9 9 8 8 8 8 7 7 7
15 15 15 14 14 14 14 14 13 13 13 13 13 13 12 12 12 12 12 11 11 11 11 11 11 10 10 10 9 9 9 9 9 8 8 8 8 7 7 7 7 7 6
15 14 14 14 14 13 13 13 13 12 12 12 12 12 12 12 12 11 11 11 11 11 10 10 10 10 9 9 9 9 8 8 8 8 8 7 7 7 7 6 6 6 6
14 14 14 13 13 13 12 12 12 12 12 12 11 11 11 11 11 11 10 10 10 10 10 9 9 9 9 9 8 8 8 8 7 7 7 7 6 6 6 6 6 5 5
13 13 13 13 12 12 12 12 11 11 11 11 11 11 10 10 10 10 10 9 9 9 9 8 8 8 8 8 8 7 7 7 7 7 6 6 6 5 5 5 5 5 5
13 12 12 12 11 11 11 11 11 10 10 10 10 10 9 9 9 9 9 9 8 8 8 8 8 7 7 7 7 7 6 6 6 6 6 5 5 5 5 5 5 4 4
12 11 11 11 11 10 10 10 10 10 10 9 9 9 9 8 8 8 8 8 8 7 7 7 7 7 6 6 6 6 5 5 5 5 5 5 5 4 4 4 4 4 4
11 11 10 10 10 10 9 9 9 9 9 8 8 8 8 7 7 7 7 7 7 7 6 6 6 6 5 5 5 5 5 5 4 4 4 4 4 4 4 4 4 3 3
10 10 9 9 9 9 8 8 8 8 8 7 7 7 7 6 6 6 6 6 6 6 6 5 5 5 5 5 4 4 4 4 4 4 4 3 3 3 3 3 3 3 3
9 9 9 8 8 8 8 7 7 7 7 6 6 6 6 6 6 5 5 5 5 5 5 4 4 4 4 4 4 4 4 4 3 3 3 3 3 3 2 2 2 2 2
Wind_Speed
7 6 5 5 5 5 4 4 3 4 3 3 2 3 4 4 4 3 2 2 3 3 3 5 5 4 3 3 3 3 3 3 3 1 1 1 2 3 3 4 3 4 5
6 6 6 6 5 5 5 4 4 4 3 3 3 3 3 4 4 3 3 2 3 3 4 5 4 4 4 3 3 3 2 2 3 2 1 1 2 2 1 1 2 3 3
7 6 6 6 6 5 5 5 4 4 3 3 3 3 3 4 4 3 2 2 3 3 3 4 3 4 3 2 2 2 2 3 2 2 1 0 1 1 1 2 2 1 1
8 7 7 7 6 6 5 5 4 4 4 3 4 4 4 4 3 3 2 2 3 3 3 4 4 4 3 2 2 2 2 2 2 2 1 1 0 0 1 1 2 2 2
9 8 7 6 7 6 6 5 4 4 4 4 4 4 4 4 3 3 2 2 2 3 3 4 4 6 8 5 3 3 3 2 1 1 0 1 0 1 1 1 1 2 2
9 8 7 6 7 7 6 5 5 4 3 4 4 4 4 3 5 5 4 2 1 2 3 3 4 6 7 6 6 5 4 2 1 0 0 0 1 1 1 1 1 1 2
9 8 8 7 7 7 7 6 6 5 4 4 4 5 5 4 5 3 3 2 1 1 2 3 3 4 4 3 3 3 3 2 0 1 0 1 1 1 1 1 1 1 2
9 8 8 8 7 7 6 6 6 5 5 4 4 5 4 4 5 3 1 1 2 0 1 2 4 4 3 3 2 1 1 1 1 1 0 1 1 1 0 1 1 2 3
8 8 8 8 8 8 7 7 5 5 5 5 4 5 5 5 6 4 3 1 1 1 1 1 3 3 3 3 2 1 0 1 1 1 1 2 2 3 2 2 2 2 3
8 8 8 8 8 8 7 6 5 5 5 5 5 5 5 5 7 7 5 2 2 2 1 1 2 3 3 4 3 2 2 2 1 1 2 4 4 5 4 3 2 2 2
7 7 8 8 8 7 6 5 5 5 5 5 5 5 5 6 8 9 8 3 3 2 2 2 2 4 5 5 4 3 4 3 2 2 2 3 3 3 4 5 4 2 3
6 6 7 7 7 7 7 6 6 6 6 5 4 4 4 5 6 8 9 8 4 3 3 2 2 4 6 6 5 4 4 3 2 2 3 3 3 3 3 4 6 7 6
6 6 6 6 5 6 6 6 5 4 4 4 4 4 3 3 4 8 9 9 7 4 2 3 3 4 5 5 6 6 4 2 2 3 4 5 4 4 3 3 4 6 7
6 6 5 5 5 5 4 4 4 4 4 4 3 3 2 2 3 3 4 4 5 5 4 4 4 4 3 4 4 4 4 4 4 5 4 4 3 3 3 3 3 3 4
5 5 5 4 5 4 4 3 4 3 4 4 3 3 3 3 4 6 5 4 4 5 3 2 2 2 3 3 4 4 4 4 6 5 5 5 5 4 4 4 4 4 5
4 4 3 3 4 4 4 3 2 2 3 4 4 3 2 2 2 4 5 4 4 4 3 3 4 4 5 5 5 5 5 6 6 6 6 5 5 5 5 4 4 5 6
4 4 3 3 3 3 3 4 2 0 0 1 3 3 3 2 1 2 2 2 3 4 3 4 5 5 5 5 5 5 5 5 5 5 5 5 5 5 5 5 5 5 7
4 4 3 3 2 3 3 3 3 3 2 1 2 4 3 3 3 3 2 1 2 2 3 5 5 4 4 4 4 5 4 4 4 4 5 5 5 5 5 6 6 7 7
4 3 2 2 2 2 1 1 1 1 1 1 1 1 2 2 2 3 4 2 3 4 4 4 4 4 4 4 4 4 4 4 5 5 5 5 5 5 6 7 7 9 8
3 5 4 3 2 2 1 1 1 1 1 1 1 1 1 1 0 1 2 3 3 3 3 4 4 4 4 4 4 4 5 5 5 5 5 5 5 6 7 8 7 8 8
3 3 4 3 2 2 1 1 1 1 0 1 0 1 1 1 2 2 2 2 3 4 4 4 4 4 4 4 4 5 6 6 5 5 5 5 6 6 6 7 8 8 8
2 2 2 2 2 2 1 1 1 1 1 1 0 0 1 1 1 2 2 2 2 3 3 4 4 4 4 4 4 5 5 5 5 5 6 6 6 6 7 7 8 8 8
2 2 2 2 2 2 2 1 1 1 1 1 1 1 0 1 1 2 2 3 3 3 3 3 4 4 5 5 5 5 5 6 5 5 5 6 6 7 7 8 9 9 9
3 3 2 2 2 1 1 1 1 1 1 1 2 2 2 2 2 2 3 3 3 3 4 4 4 6 7 8 8 7 7 8 8 7 7 7 7 7 7 8 8 9 9
3 3 3 3 2 2 2 2 2 2 2 2 3 3 3 3 3 3 4 4 4 4 5 6 6 7 9 10 9 8 10 11 11 10 9 7 8 8 8 9 8 9 9
3 3 3 3 3 3 2 2 3 3 3 3 3 3 3 3 3 4 4 4 5 5 6 7 9 10 11 10 10 11 12 13 13 13 11 8 8 8 8 8 10 9 10
Wind_Direction
176 163 154 150 144 135 133 129 130 128 134 142 119 115 114 110 99 89 83 76 90 91 86 78 62 57 57 41 44 45 44 81 105 78 81 96 79 69 65 47 65 80 67
172 164 159 151 152 153 151 152 147 139 136 128 109 99 99 103 105 98 80 69 80 83 88 92 81 69 58 44 47 45 41 63 111 113 84 65 81 89 71 16 40 66 80
167 165 161 162 167 164 158 153 149 142 144 134 121 107 94 94 95 98 102 94 93 89 86 98 105 96 78 59 55 51 40 54 75 109 137 79 77 86 49 5 25 22 15
164 169 172 171 165 162 154 148 154 144 145 136 122 114 106 92 83 87 97 88 90 95 94 84 81 83 80 72 69 56 56 57 56 74 96 127 134 2 74 359 337 315 315
165 170 174 167 157 151 145 150 151 142 144 134 123 116 109 102 69 52 56 79 90 97 94 90 82 81 71 63 62 51 52 50 52 66 88 57 25 27 321 288 301 298 305
167 170 169 167 152 151 151 154 147 144 144 128 127 122 113 102 87 65 40 13 75 102 115 122 117 95 81 72 64 64 70 69 65 72 183 189 262 254 278 312 324 341 309
170 169 169 166 154 157 159 154 152 157 148 140 143 135 131 126 117 93 39 353 335 132 139 141 126 118 113 109 78 52 35 27 29 173 251 250 255 259 240 301 310 295 264
168 168 167 163 157 156 154 155 162 159 152 161 164 151 141 146 147 138 118 285 308 4 113 131 132 138 138 138 146 119 19 342 340 44 100 300 330 351 7 230 249 306 298
165 168 164 160 157 160 161 164 165 160 161 173 175 165 160 163 168 164 149 225 259 257 208 137 141 146 147 134 138 167 229 286 334 339 275 276 306 328 348 31 346 331 302
166 167 162 159 159 164 168 167 162 161 168 174 180 180 176 174 178 179 177 195 233 242 222 168 142 152 154 153 170 199 231 244 247 295 283 277 277 280 273 227 220 243 273
155 155 155 158 162 165 164 161 159 165 173 182 184 188 184 179 181 186 186 196 218 231 219 202 193 184 186 191 195 206 226 241 250 254 254 258 258 252 250 245 233 212 244
136 140 146 154 160 162 159 163 166 169 179 188 193 198 192 187 180 193 197 206 220 232 234 216 210 207 206 211 213 231 242 264 265 271 273 263 255 253 250 239 237 237 241
131 137 141 145 149 152 157 162 163 169 183 192 192 199 201 183 184 192 203 214 226 231 257 261 247 226 213 219 226 231 234 238 246 257 258 256 253 248 249 250 251 251 259
138 144 149 152 150 145 145 156 164 179 187 190 194 201 199 188 185 189 202 215 225 239 260 273 264 238 221 228 231 237 230 230 232 244 254 258 263 262 255 247 250 254 265
139 144 145 143 144 143 143 153 165 183 182 186 197 193 190 208 210 186 181 196 206 215 215 219 224 226 231 238 237 233 227 232 240 244 250 256 258 256 255 248 244 249 254
129 128 130 136 138 138 136 127 109 146 165 167 163 165 173 170 178 183 192 201 208 206 195 222 229 229 232 236 238 240 233 233 236 237 240 245 251 255 260 259 251 249 257
116 123 128 132 136 145 152 160 168 206 239 207 203 202 201 200 211 218 215 230 234 195 206 232 238 238 240 240 241 242 244 242 239 240 245 249 253 257 259 261 260 260 263
102 106 112 121 134 155 167 175 175 175 188 240 237 226 219 221 231 227 202 159 241 216 229 240 246 249 251 252 252 254 255 255 249 250 251 253 253 257 263 263 262 262 267
102 98 103 114 118 115 111 118 133 155 158 152 125 175 216 233 240 221 173 201 235 240 241 247 252 256 259 259 259 260 259 258 257 253 253 255 254 256 261 262 264 266 265
96 94 93 102 104 104 103 99 97 93 88 99 109 118 116 88 171 208 212 231 246 258 260 260 263 264 266 266 265 262 262 261 261 258 259 260 258 256 259 262 264 267 266
86 90 91 89 89 94 90 96 102 100 81 75 110 147 152 209 236 241 240 241 250 257 263 266 265 263 262 266 266 267 264 262 262 263 264 263 263 265 265 266 268 267 269
86 96 92 95 87 78 67 47 48 59 50 43 8 199 210 251 272 291 288 277 265 272 275 282 279 279 276 273 272 270 272 273 273 272 272 272 272 271 270 268 268 269 270
71 85 83 74 73 74 62 42 40 40 33 20 7 6 331 307 307 307 305 306 313 311 322 315 300 299 305 299 291 281 273 272 276 281 277 277 276 274 273 270 271 274 273
58 66 72 70 62 66 56 35 28 26 24 11 357 354 348 330 328 327 327 328 326 326 330 326 315 306 304 304 297 290 290 294 298 300 289 284 281 279 276 275 276 275 275
57 58 58 60 56 47 37 31 25 25 28 24 13 8 3 359 354 349 345 343 337 333 333 330 322 317 312 311 311 308 308 309 307 304 300 288 280 280 281 281 280 281 278
57 57 55 52 49 44 40 33 30 29 25 18 14 13 6 1 354 348 345 345 341 335 330 327 322 325 326 324 319 316 313 310 305 300 296 288 276 276 280 282 283 283 281
Height
1558 1560 1562 1564 1565 1566 1567 1568 1569 1570 1570 1571 1572 1572 1572 1572 1572 1572 1573 1573 1573 1573 1574 1574 1574 1574 1574 1574 1574 1574 1574 1574 1574 1574 1574 1574 1573 1572 1571 1570 1568 1567 1566
1557 1559 1561 1563 1564 1565 1567 1568 1569 1569 1570 1571 1572 1572 1572 1573 1573 1573 1573 1574 1574 1574 1574 1574 1574 1574 1574 1574 1574 1574 1574 1574 1574 1574 1574 1574 1573 1572 1571 1570 1569 1568 1566
1555 1558 1560 1561 1563 1564 1566 1567 1568 1569 1570 1571 1571 1572 1572 1573 1573 1573 1574 1574 1574 1574 1574 1574 1574 1574 1574 1574 1574 1574 1574 1574 1574 1574 1573 1573 1573 1572 1570 1569 1569 1567 1566
1553 1556 1558 1559 1561 1563 1565 1566 1567 1568 1569 1570 1571 1571 1572 1573 1573 1573 1574 1574 1574 1574 1574 1574 1574 1574 1574 1574 1574 1574 1573 1573 1573 1573 1573 1572 1572 1571 1570 1569 1567 1567 1566
1550 1553 1555 1558 1559 1561 1563 1564 1566 1567 1568 1569 1570 1571 1572 1572 1573 1573 1574 1574 1574 1574 1574 1574 1574 1575 1574 1574 1574 1573 1573 1573 1573 1573 1572 1571 1570 1569 1569 1568 1566 1565 1565
1548 1550 1553 1555 1557 1559 1561 1563 1564 1566 1567 1568 1569 1570 1571 1571 1572 1573 1573 1573 1574 1574 1574 1574 1574 1574 1574 1573 1573 1573 1572 1572 1572 1572 1571 1570 1569 1568 1567 1566 1565 1564 1563
1545 1548 1550 1553 1555 1557 1559 1560 1562 1564 1565 1566 1568 1569 1569 1570 1571 1572 1572 1573 1573 1573 1573 1573 1573 1572 1572 1572 1572 1572 1571 1571 1571 1571 1570 1569 1567 1566 1565 1564 1563 1562 1561
1543 1545 1548 1550 1552 1554 1556 1558 1560 1562 1563 1565 1566 1567 1568 1569 1570 1570 1571 1571 1571 1572 1572 1572 1571 1571 1571 1570 1570 1569 1569 1569 1569 1569 1568 1567 1566 1565 1564 1563 1562 1561 1559
1540 1542 1545 1547 1549 1552 1554 1555 1557 1559 1561 1562 1564 1565 1566 1567 1568 1569 1569 1569 1570 1570 1570 1570 1570 1569 1569 1568 1568 1567 1567 1567 1567 1566 1566 1565 1564 1563 1562 1561 1559 1558 1556
1537 1540 1542 1545 1547 1549 1551 1553 1555 1557 1558 1560 1561 1563 1564 1565 1566 1566 1567 1567 1567 1567 1568 1568 1568 1567 1567 1566 1566 1565 1564 1564 1564 1563 1562 1562 1561 1560 1559 1558 1557 1556 1554
1535 1537 1540 1542 1544 1546 1548 1550 1552 1554 1556 1557 1559 1560 1561 1562 1563 1563 1564 1564 1564 1565 1565 1565 1565 1565 1564 1564 1563 1562 1562 1561 1560 1560 1559 1558 1557 1556 1556 1555 1554 1553 1551
1532 1535 1537 1539 1541 1543 1545 1547 1549 1551 1553 1554 1556 1557 1558 1559 1559 1560 1561 1561 1561 1561 1561 1561 1561 1561 1561 1560 1560 1559 1559 1558 1557 1556 1555 1554 1553 1553 1552 1551 1550 1549 1547
1530 1532 1534 1537 1539 1541 1542 1544 1546 1548 1549 1551 1552 1553 1554 1555 1556 1556 1557 1558 1558 1558 1558 1558 1558 1557 1557 1556 1556 1555 1555 1554 1553 1552 1550 1550 1550 1549 1548 1546 1545 1544 1542
1527 1530 1532 1534 1536 1538 1540 1541 1543 1545 1546 1547 1549 1550 1551 1552 1552 1553 1553 1553 1554 1554 1554 1553 1553 1553 1552 1552 1551 1551 1550 1549 1548 1547 1546 1546 1545 1544 1542 1541 1540 1539 1537
1526 1528 1530 1532 1534 1535 1537 1538 1540 1542 1543 1544 1545 1547 1547 1548 1548 1549 1549 1549 1549 1549 1549 1549 1548 1548 1547 1547 1546 1546 1545 1544 1543 1542 1541 1540 1539 1538 1537 1536 1535 1533 1531
1524 1526 1528 1530 1531 1533 1534 1536 1537 1539 1540 1541 1542 1544 1544 1545 1545 1545 1545 1545 1545 1545 1545 1543 1543 1543 1542 1541 1541 1540 1540 1539 1538 1537 1536 1535 1534 1532 1531 1531 1529 1528 1526
1523 1525 1526 1528 1529 1530 1532 1533 1534 1536 1537 1538 1539 1540 1540 1541 1541 1541 1541 1541 1541 1540 1539 1538 1538 1537 1537 1536 1536 1535 1534 1534 1533 1532 1531 1529 1528 1527 1526 1524 1523 1522 1519
1522 1523 1525 1526 1527 1528 1530 1531 1532 1533 1533 1534 1535 1536 1536 1536 1536 1536 1536 1536 1535 1535 1534 1534 1533 1533 1532 1531 1531 1530 1529 1529 1527 1526 1525 1524 1523 1521 1520 1518 1517 1515 1513
1520 1522 1523 1524 1525 1526 1528 1529 1529 1530 1531 1531 1531 1532 1532 1532 1532 1532 1531 1531 1531 1530 1530 1529 1529 1528 1527 1526 1525 1524 1524 1523 1522 1520 1519 1518 1516 1515 1513 1512 1510 1508 1507
1519 1520 1521 1522 1523 1524 1525 1526 1527 1527 1528 1528 1528 1528 1528 1528 1527 1527 1527 1527 1526 1526 1525 1524 1523 1523 1522 1521 1520 1519 1517 1516 1515 1514 1512 1511 1510 1508 1506 1505 1503 1502 1499
1518 1519 1520 1521 1522 1523 1524 1524 1525 1525 1525 1525 1525 1525 1525 1524 1524 1524 1523 1522 1522 1521 1520 1519 1518 1517 1516 1515 1514 1512 1511 1510 1508 1507 1505 1504 1502 1501 1499 1498 1496 1494 1492
1516 1517 1518 1519 1520 1521 1522 1522 1523 1523 1523 1523 1523 1522 1522 1521 1521 1520 1519 1518 1517 1517 1516 1515 1514 1512 1511 1510 1508 1507 1505 1503 1502 1500 1498 1496 1495 1493 1492 1490 1488 1486 1484
1515 1516 1516 1517 1518 1519 1520 1520 1520 1520 1520 1520 1520 1519 1519 1518 1517 1517 1516 1515 1514 1512 1511 1510 1508 1507 1506 1504 1503 1501 1499 1497 1495 1493 1491 1489 1487 1486 1484 1482 1480 1478 1476
1513 1514 1515 1515 1516 1517 1517 1517 1518 1518 1518 1517 1517 1516 1516 1515 1514 1513 1512 1511 1510 1508 1507 1505 1503 1502 1500 1498 1496 1494 1492 1490 1489 1486 1484 1482 1480 1478 1476 1474 1472 1470 1468
1512 1512 1513 1513 1514 1514 1515 1515 1515 1515 1514 1514 1514 1513 1512 1512 1511 1509 1508 1507 1505 1504 1502 1500 1498 1496 1494 1492 1490 1487 1485 1483 1481 1479 1477 1474 1472 1470 1468 1466 1464 1462 1460
1510 1511 1511 1512 1512 1512 1512 1512 1512 1512 1511 1511 1510 1510 1509 1508 1507 1506 1504 1502 1500 1499 1497 1495 1493 1490 1488 1485 1483 1481 1478 1476 1473 1471 1469 1466 1464 1462 1460 1457 1455 1453 1451